This is the latest recevied weather packets stored in our database for station/object NZ3C. If no packets are shown the sender has not sent any weather packets the latest 10 day(s).
| Time | Temp. | Humidity | Pressure | Rain* | Wind** | Luminosity | Snow |
|---|---|---|---|---|---|---|---|
| 1777431893 | 13.33° C | 94% | 1019.3 hPa | 0 mm | - | 0 W/m² | - |
| 1777431590 | 13.33° C | 94% | 1019.4 hPa | 0 mm | - | 0 W/m² | - |
| 1777431286 | 13.33° C | 94% | 1019.3 hPa | 0 mm | - | 0 W/m² | - |
| 1777430982 | 12.78° C | 93% | 1019.2 hPa | 0 mm | - | 0 W/m² | - |
| 1777430678 | 12.78° C | 93% | 1019.1 hPa | 0 mm | - | 0 W/m² | - |
| 1777430374 | 13.33° C | 92% | 1019.1 hPa | 0 mm | - | 0 W/m² | - |
| 1777430069 | 13.33° C | 92% | 1019.1 hPa | 0 mm | - | 0 W/m² | - |
| 1777429766 | 13.33° C | 92% | 1018.9 hPa | 0 mm | - | 0 W/m² | - |
| 1777429462 | 13.33° C | 92% | 1019 hPa | 0 mm | - | 0 W/m² | - |
| 1777429158 | 13.33° C | 92% | 1018.8 hPa | 0 mm | - | 0 W/m² | - |
| 1777428854 | 13.89° C | 91% | 1018.8 hPa | 0 mm | - | 0 W/m² | - |
| 1777428550 | 13.89° C | 92% | 1019 hPa | 0 mm | - | 0 W/m² | - |
| 1777428247 | 13.33° C | 91% | 1018.9 hPa | 0 mm | - | 0 W/m² | - |
| 1777427947 | 13.33° C | 90% | 1018.6 hPa | 0 mm | - | 0 W/m² | - |
| 1777427644 | 13.89° C | 90% | 1018.7 hPa | 0 mm | - | 0 W/m² | - |
| 1777427340 | 13.89° C | 90% | 1018.6 hPa | 0 mm | - | 0 W/m² | - |
| 1777427037 | 13.89° C | 89% | 1018.3 hPa | 0 mm | - | 0 W/m² | - |
| 1777426734 | 13.89° C | 89% | 1018.4 hPa | 0 mm | - | 0 W/m² | - |
| 1777426431 | 14.44° C | 88% | 1018.6 hPa | 0 mm | - | 0 W/m² | - |
| 1777426128 | 14.44° C | 88% | 1018.5 hPa | 0 mm | - | 0 W/m² | - |
| 1777425828 | 14.44° C | 88% | 1018.7 hPa | 0 mm | - | 0 W/m² | - |
| 1777425523 | 14.44° C | 87% | 1018.7 hPa | 0 mm | - | 0 W/m² | - |
| 1777425218 | 14.44° C | 87% | 1018.3 hPa | 0 mm | - | 0 W/m² | - |
| 1777424916 | 15° C | 87% | 1018.3 hPa | 0 mm | - | 0 W/m² | - |
| 1777424612 | 15° C | 86% | 1018.4 hPa | 0 mm | - | 0 W/m² | - |
* Rain latest hour (hover to see other rain measurements)
** Current wind speed in m/s (hover to see current wind gust speed)